Pagrindinis puslapis
METAR-TAF:

METAR-TAF

Oro uostai :

Providensijos sala, Kolumbija

platuma: 13-22N, ilguma: 081-21W, Aukštis: 6 m

Dabartinis oras

Ataskaita buvo paskelbta 2 valandos ir 52 minutes, ne 00:00 UTC
Vėjas 4 kt iš Rytų, svyruoja nuo Šiaurės ir Rytų/Pietryčių
Temperatūra 27°C
Drėgmė 74%
Slėgis 1011 hPa
Matomumas 10 km arba daugiau
Mažai debesys ne aukštis 1700 ft

METAR: SKPV 010000Z 09004KT 360V120 9999 FEW017 27/22 A2985

Laikas: 21:52 (02:52 UTC)


TAF: trūkstamas

Orai ataskaitas ir orų prognozės (METAR, TAF).

turimą stotys yra geltonos ir raudonos taškus žemėlapyje.

Perkelti pele per norėdami pamatyti stoties vardą.

Tada spustelėkite, norėdami matyti oro stebėjimo ir prognozės.

Norėdami pakeisti žemėlapį: spustelėkite ant žalios mygtukų su juodo kryžiaus žemyn,; žalią mygtuką su brūkšneliu, jei norite nutolinti; arba žalių rodyklių gretimoms žemėlapius.


METAR-TAF: